User: anonymous   Login
Location: Unspecified
(0.0000°N, 0.0000°E)
Time: 04:38:10
(UTC+00:00)
Language:

Tiros 6 - Orbit

View from above orbital plane
View from above orbital plane
View from above satellite
View from above satellite

Ground track
Ground track

The orbit data is extracted from the following two-line orbital elements,

1 00397U 62047A   18020.52350644 -.00000068  00000-0  15681-4 0  9998
2 00397  58.3058 131.0930 0003901 193.8941 166.1996 14.88256076976079
Epoch (UTC): 20 January 2018 12:33:50
Eccentricity: 0.0003901
inclination: 58.3058°
perigee height: 600 km
apogee height: 606 km
right ascension of ascending node: 131.0930°
argument of perigee: 193.8941°
revolutions per day: 14.88256076
mean anomaly at epoch: 166.1996°
orbit number at epoch: 97607

The dashed part of the orbit path shows where the satellite is in the earth's shadow,  

DLR